DW7567 Weather Reports


Display with metric or nautical units.
time (UTC)temp
F
wind
direction
speed
MPH
gust
MPH
rain 1hr
in
rain 24hr
in
rain mn
in
humidity
%
barometer
mb
20210916114518 64 308 0.0 0.0 0.00 0.00 0.00 93 1018.1
20210916113014 64 308 0.0 0.0 0.00 0.00 0.00 93 1017.8
20210916111533 64 308 0.0 0.0 0.00 0.00 0.00 92 1017.4
20210916110005 65 308 0.0 0.0 0.00 0.00 0.00 92 1017.3
20210916104632 65 308 0.0 0.0 0.00 0.00 0.00 92 1017.1
20210916103142 65 308 0.0 0.0 0.00 0.00 0.00 92 1017.0
20210916101656 65 308 0.0 0.0 0.00 0.00 0.00 92 1016.8
20210916100150 66 308 0.0 0.0 0.00 0.00 0.00 91 1016.6
20210916094606 66 308 0.0 0.0 0.00 0.00 0.00 92 1016.5
20210916093056 67 308 0.0 0.0 0.00 0.00 0.00 92 1016.2
20210916091630 67 308 0.0 0.0 0.00 0.00 0.00 92 1016.2
20210916090054 67 308 0.0 0.0 0.00 0.00 0.00 91 1016.0
20210916084549 67 308 0.0 0.0 0.00 0.00 0.00 90 1015.7
20210916083055 68 308 0.0 0.0 0.00 0.00 0.00 90 1015.7
20210916081546 68 308 0.0 0.0 0.00 0.00 0.00 89 1015.6
20210916080111 68 308 0.0 0.0 0.00 0.00 0.00 88 1015.7
20210916074559 69 308 0.0 0.0 0.00 0.00 0.00 89 1015.8
20210916073043 69 308 0.0 0.0 0.00 0.00 0.00 89 1015.8
20210916071605 69 308 0.0 0.0 0.00 0.00 0.00 89 1016.0
20210916070038 69 308 0.0 0.0 0.00 0.00 0.00 88 1016.0
20210916064535 69 308 0.0 0.0 0.00 0.00 0.00 87 1015.9
20210916063051 70 308 0.0 0.0 0.00 0.00 0.00 87 1016.0
20210916061537 70 308 0.0 0.0 0.00 0.00 0.00 87 1016.0
20210916060028 71 308 0.0 0.0 0.00 0.00 0.00 87 1016.0
20210916054553 71 312 0.0 0.0 0.00 0.00 0.00 86 1016.0
20210916053035 71 313 0.0 0.0 0.00 0.00 0.00 86 1016.0
20210916051537 71 318 0.0 0.0 0.00 0.00 0.00 86 1016.1
20210916050045 71 332 0.0 0.0 0.00 0.00 0.00 86 1015.9
20210916044552 71 346 0.0 0.0 0.00 0.00 0.00 86 1015.9
20210916043111 71 5 0.0 0.0 0.00 0.00 0.00 87 1015.7
20210916041525 71 36 0.0 0.0 0.00 0.00 0.00 88 1015.7
20210916040045 70 40 0.0 0.0 0.00 0.00 0.00 88 1015.4
20210916034515 70 40 0.0 0.0 0.00 0.00 0.00 88 1015.3
20210916033028 71 40 0.0 0.0 0.00 0.00 0.00 88 1015.4
20210916031526 71 40 0.0 0.0 0.00 0.00 0.00 88 1015.5
20210916030029 71 40 0.0 0.0 0.00 0.00 0.00 87 1015.2
20210916024512 71 40 0.0 0.0 0.00 0.00 0.00 87 1015.2
20210916023046 72 40 0.0 0.0 0.00 0.00 0.00 86 1015.1
20210916021520 72 40 0.0 0.0 0.00 0.00 0.00 84 1015.1
20210916020022 73 40 0.0 0.0 0.00 0.00 0.00 84 1015.0
20210916014521 72 40 0.0 0.0 0.00 0.00 0.00 84 1014.7
20210916013020 72 40 0.0 0.0 0.00 0.00 0.00 85 1014.7
20210916011505 72 40 0.0 0.0 0.00 0.00 0.00 85 1014.6
20210916010010 73 40 0.0 0.0 0.00 0.00 0.00 84 1014.4
20210916004615 73 40 0.0 0.0 0.00 0.00 0.00 83 1013.9
20210916001707 75 40 0.0 0.0 0.00 0.00 0.00 81 1013.5
20210916000215 75 40 0.0 0.0 0.00 0.00 0.00 80 1013.3
20210915234700 76 40 0.0 0.0 0.00 0.00 0.00 79 1013.1
20210915233244 77 40 0.0 0.0 0.00 0.00 0.00 77 1012.8
20210915231644 78 40 0.0 0.0 0.00 0.00 0.00 76 1012.7
20210915230124 79 40 0.0 0.0 0.00 0.00 0.00 75 1012.4
20210915223214 81 40 0.0 0.0 0.00 0.00 0.00 71 1012.1
20210915221640 82 36 0.0 0.0 0.00 0.00 0.00 69 1012.0
20210915220136 83 36 0.0 0.0 0.00 0.00 0.00 68 1011.8
20210915214606 83 36 0.0 4.0 0.00 0.00 0.00 67 1011.7
20210915213215 83 24 0.0 0.0 0.00 0.00 0.00 68 1011.7
20210915211629 83 24 0.0 2.0 0.00 0.00 0.00 66 1011.7
20210915204710 86 56 2.0 8.0 0.00 0.00 0.00 63 1011.6
20210915203134 86 48 2.0 8.0 0.00 0.00 0.00 63 1011.6
20210915201625 87 38 3.0 8.0 0.00 0.00 0.00 63 1011.5
20210915200107 87 26 0.0 8.0 0.00 0.00 0.00 61 1011.7
20210915194614 86 64 1.0 9.0 0.00 0.00 0.00 62 1011.8
20210915193226 87 78 3.0 11.0 0.00 0.00 0.00 61 1011.8
20210915190215 86 69 5.0 9.0 0.00 0.00 0.00 60 1012.2
20210915184632 86 61 6.0 12.0 0.00 0.00 0.00 62 1012.4
20210915183153 87 61 4.0 13.0 0.00 0.00 0.00 61 1012.5
20210915181544 86 49 1.0 10.0 0.00 0.00 0.00 61 1012.6
20210915180042 86 64 2.0 9.0 0.00 0.00 0.00 59 1012.7
20210915174626 86 28 4.0 13.0 0.00 0.00 0.00 58 1012.8
20210915171543 86 77 5.0 10.0 0.00 0.00 0.00 60 1013.2
20210915170056 86 42 2.0 10.0 0.00 0.00 0.00 64 1013.2
20210915164537 85 45 4.0 9.0 0.00 0.00 0.00 64 1013.3
20210915163039 85 90 1.0 10.0 0.00 0.00 0.00 67 1013.5
20210915161600 84 69 5.0 10.0 0.00 0.00 0.00 66 1013.6
20210915160108 84 82 6.0 13.0 0.00 0.00 0.00 66 1013.8
20210915153015 82 77 4.0 9.0 0.00 0.00 0.00 68 1013.9
20210915151514 82 54 2.0 12.0 0.00 0.00 0.00 68 1014.0
20210915150038 81 66 0.0 9.0 0.00 0.00 0.00 72 1014.0
20210915144536 80 88 0.0 10.0 0.00 0.00 0.00 75 1014.1
20210915143004 78 66 0.0 8.0 0.00 0.00 0.00 76 1014.2
20210915141501 77 40 0.0 0.0 0.00 0.00 0.00 77 1014.1
20210915140124 75 22 0.0 0.0 0.00 0.00 0.00 82 1014.1
20210915134618 72 16 0.0 0.0 0.00 0.00 0.00 88 1014.0
20210915133224 69 16 0.0 0.0 0.00 0.00 0.00 93 1014.1
20210915131616 68 16 0.0 0.0 0.00 0.00 0.00 95 1014.0
20210915130210 67 16 0.0 0.0 0.00 0.00 0.00 96 1013.9
20210915124606 66 16 0.0 0.0 0.00 0.00 0.00 96 1013.9
20210915123141 65 16 0.0 0.0 0.00 0.00 0.00 96 1013.8
20210915120116 62 16 0.0 0.0 0.00 0.00 0.00 96 1014.0